GFSGL_500_temp_000.txt.gz
Temp
-13 -13 -13 -13 -13 -13 -14 -13 -13 -13 -14 -14 -14 -14 -15 -15 -15 -15 -16 -16 -17 -17 -17 -17 -16 -16 -17 -18 -18 -19 -20 -20 -20 -20 -21 -22 -22 -22 -22 -22 -22 -22 -21
-13 -13 -13 -13 -14 -14 -14 -14 -14 -14 -14 -14 -14 -15 -15 -15 -16 -16 -17 -17 -17 -17 -17 -16 -17 -17 -18 -19 -19 -20 -20 -21 -21 -21 -22 -22 -23 -23 -23 -22 -23 -25 -25
-14 -14 -14 -14 -14 -13 -13 -14 -14 -14 -15 -15 -15 -15 -16 -17 -17 -17 -18 -18 -17 -17 -17 -17 -18 -18 -19 -19 -20 -20 -21 -21 -22 -22 -23 -24 -23 -23 -25 -26 -26 -26 -26
-14 -14 -14 -14 -14 -14 -14 -15 -15 -15 -15 -16 -16 -17 -17 -17 -18 -18 -18 -18 -18 -18 -18 -19 -19 -19 -20 -20 -20 -21 -21 -22 -22 -23 -24 -24 -23 -26 -28 -27 -27 -27 -27
-15 -15 -15 -15 -15 -15 -15 -16 -16 -16 -17 -17 -18 -18 -18 -18 -18 -18 -18 -18 -19 -19 -19 -20 -20 -20 -20 -20 -21 -22 -22 -22 -23 -24 -24 -23 -26 -27 -28 -28 -27 -28 -28
-15 -15 -15 -16 -16 -16 -17 -17 -17 -18 -18 -19 -18 -19 -19 -19 -19 -19 -19 -19 -20 -20 -20 -21 -21 -21 -21 -21 -22 -22 -22 -24 -25 -24 -23 -26 -27 -27 -28 -28 -28 -28 -28
-16 -16 -16 -16 -17 -18 -18 -18 -18 -18 -19 -19 -19 -19 -19 -19 -19 -20 -20 -20 -20 -20 -21 -21 -21 -21 -21 -22 -22 -22 -23 -25 -25 -24 -26 -26 -26 -26 -27 -28 -28 -28 -29
-18 -17 -18 -18 -18 -18 -19 -19 -20 -20 -20 -20 -20 -20 -20 -20 -20 -20 -21 -21 -21 -21 -22 -22 -22 -22 -23 -23 -22 -22 -24 -25 -24 -26 -27 -26 -26 -27 -27 -27 -28 -29 -29
-19 -19 -19 -19 -20 -20 -20 -19 -20 -21 -21 -21 -20 -21 -21 -21 -21 -21 -21 -21 -21 -22 -23 -22 -23 -23 -23 -23 -23 -23 -24 -25 -26 -29 -28 -27 -28 -28 -28 -28 -28 -29 -28
-19 -19 -20 -20 -21 -21 -21 -21 -21 -21 -22 -21 -21 -21 -22 -22 -21 -22 -22 -22 -22 -23 -23 -23 -24 -24 -24 -24 -24 -25 -25 -25 -27 -28 -29 -29 -29 -30 -31 -29 -29 -28 -27
-20 -20 -21 -21 -22 -22 -22 -22 -22 -22 -22 -22 -22 -22 -22 -22 -23 -23 -23 -23 -23 -23 -24 -24 -24 -24 -25 -25 -26 -26 -25 -26 -29 -29 -29 -30 -29 -30 -31 -30 -30 -29 -27
-21 -21 -20 -21 -21 -22 -22 -22 -22 -23 -22 -22 -22 -22 -22 -23 -23 -23 -23 -23 -23 -24 -24 -25 -25 -25 -25 -25 -26 -26 -26 -29 -29 -29 -29 -30 -30 -30 -30 -31 -30 -29 -27
-22 -21 -22 -22 -22 -22 -22 -23 -23 -23 -23 -23 -23 -23 -23 -24 -24 -24 -24 -24 -24 -25 -25 -25 -25 -25 -26 -26 -26 -26 -27 -29 -29 -29 -29 -30 -30 -30 -30 -30 -30 -29 -28
-22 -22 -23 -23 -23 -23 -23 -23 -23 -24 -23 -24 -23 -23 -24 -24 -24 -24 -25 -25 -27 -27 -27 -26 -26 -26 -26 -27 -26 -27 -30 -30 -29 -29 -29 -30 -30 -30 -30 -30 -30 -30 -28
-22 -22 -22 -23 -23 -23 -23 -23 -24 -24 -24 -24 -24 -24 -24 -25 -25 -26 -26 -27 -28 -28 -27 -27 -27 -28 -27 -26 -26 -29 -30 -30 -29 -29 -29 -29 -30 -30 -30 -30 -30 -29 -28
-22 -22 -22 -23 -23 -23 -24 -24 -24 -25 -24 -24 -24 -25 -25 -25 -26 -27 -28 -29 -30 -29 -29 -28 -28 -28 -27 -27 -27 -30 -30 -30 -30 -29 -29 -30 -30 -30 -29 -30 -29 -29 -27
-23 -23 -23 -23 -24 -24 -25 -24 -25 -25 -25 -25 -25 -26 -26 -27 -28 -28 -29 -30 -30 -30 -29 -28 -28 -28 -27 -28 -30 -31 -30 -30 -30 -29 -30 -30 -30 -30 -30 -30 -29 -28 -27
-24 -23 -23 -24 -24 -24 -25 -25 -25 -25 -25 -25 -26 -26 -27 -28 -29 -30 -31 -31 -31 -30 -29 -29 -29 -28 -28 -30 -32 -31 -31 -30 -30 -30 -30 -30 -30 -30 -31 -31 -30 -28 -27
-24 -24 -24 -24 -24 -24 -25 -26 -26 -25 -25 -25 -26 -27 -28 -29 -30 -31 -31 -31 -30 -30 -30 -30 -29 -29 -30 -33 -33 -32 -31 -30 -29 -30 -30 -30 -30 -30 -31 -31 -29 -28 -26
-24 -24 -24 -25 -25 -27 -26 -26 -26 -26 -26 -27 -28 -28 -29 -30 -31 -31 -31 -30 -31 -31 -31 -30 -30 -31 -33 -34 -33 -32 -32 -31 -30 -30 -30 -30 -30 -30 -30 -30 -29 -28 -26
-26 -27 -26 -26 -27 -27 -27 -26 -26 -27 -28 -28 -29 -29 -30 -31 -31 -31 -31 -31 -31 -31 -31 -31 -31 -33 -34 -34 -33 -33 -32 -31 -30 -30 -30 -30 -30 -30 -29 -29 -29 -28 -27
-28 -28 -27 -27 -28 -28 -28 -27 -29 -29 -29 -29 -30 -30 -31 -32 -32 -31 -32 -32 -32 -32 -32 -32 -33 -34 -35 -34 -33 -33 -32 -31 -30 -30 -30 -30 -30 -29 -28 -29 -28 -28 -27
-28 -28 -27 -26 -27 -28 -28 -29 -30 -29 -30 -30 -31 -32 -32 -32 -31 -32 -32 -32 -32 -32 -33 -33 -35 -35 -35 -35 -34 -33 -32 -31 -30 -30 -30 -29 -29 -29 -29 -28 -28 -28 -27
-28 -28 -27 -28 -28 -30 -30 -30 -30 -30 -31 -31 -32 -32 -32 -32 -32 -33 -33 -33 -33 -33 -33 -35 -36 -36 -36 -35 -34 -34 -33 -32 -31 -30 -29 -29 -29 -29 -28 -28 -27 -27 -26
-28 -28 -28 -30 -31 -31 -30 -31 -31 -32 -32 -32 -32 -32 -32 -32 -33 -33 -33 -33 -34 -34 -35 -36 -37 -36 -36 -36 -35 -34 -33 -32 -31 -30 -29 -29 -29 -28 -28 -28 -28 -27 -26
-28 -29 -30 -31 -31 -31 -32 -32 -32 -32 -32 -32 -33 -33 -32 -33 -33 -33 -33 -34 -34 -34 -35 -36 -37 -37 -37 -36 -36 -35 -34 -33 -32 -31 -29 -29 -29 -28 -27 -27 -27 -26 -25

GFSGL_500_temp_003.txt.gz
Temp
-13 -13 -13 -14 -14 -14 -14 -14 -14 -14 -14 -14 -13 -13 -13 -13 -13 -14 -14 -14 -15 -16 -17 -18 -18 -18 -18 -18 -18 -18 -18 -17 -17 -16 -17 -18 -18 -19 -19 -19 -20 -20 -20
-14 -14 -14 -14 -15 -15 -14 -14 -14 -14 -14 -14 -14 -14 -14 -14 -14 -15 -15 -16 -17 -18 -18 -18 -18 -18 -18 -18 -18 -18 -19 -19 -18 -18 -18 -19 -19 -20 -20 -20 -20 -20 -20
-14 -14 -15 -15 -15 -15 -15 -14 -15 -14 -15 -15 -15 -15 -15 -15 -16 -16 -17 -18 -18 -19 -19 -18 -18 -19 -19 -19 -19 -19 -19 -19 -19 -19 -19 -20 -20 -20 -20 -22 -21 -20 -21
-16 -16 -16 -16 -16 -16 -15 -15 -15 -16 -16 -16 -16 -17 -17 -17 -17 -18 -19 -19 -19 -19 -19 -19 -19 -20 -20 -20 -20 -20 -20 -20 -20 -20 -20 -20 -21 -21 -22 -22 -22 -21 -23
-16 -16 -16 -16 -16 -16 -16 -16 -16 -17 -17 -18 -18 -18 -18 -18 -19 -19 -20 -20 -20 -20 -20 -20 -20 -20 -21 -21 -21 -21 -21 -20 -21 -21 -21 -21 -21 -22 -22 -22 -22 -23 -27
-16 -16 -16 -16 -17 -17 -17 -18 -18 -18 -19 -19 -19 -19 -19 -20 -20 -20 -20 -20 -20 -21 -21 -21 -21 -21 -21 -21 -21 -21 -21 -22 -22 -21 -21 -22 -23 -23 -23 -23 -24 -26 -27
-16 -16 -17 -17 -18 -18 -18 -19 -19 -19 -19 -20 -20 -21 -21 -21 -21 -21 -21 -21 -21 -21 -21 -22 -22 -22 -22 -22 -22 -22 -23 -22 -22 -22 -22 -23 -23 -24 -24 -24 -27 -27 -26
-17 -17 -18 -18 -18 -19 -19 -20 -20 -20 -21 -21 -21 -21 -21 -21 -21 -21 -22 -22 -22 -22 -22 -22 -22 -23 -23 -22 -22 -22 -23 -23 -23 -23 -23 -23 -25 -25 -25 -27 -28 -27 -27
-18 -18 -18 -19 -19 -19 -20 -21 -20 -20 -21 -21 -21 -22 -22 -22 -22 -22 -22 -23 -23 -22 -22 -23 -23 -23 -23 -23 -23 -23 -23 -23 -23 -24 -24 -25 -25 -25 -28 -29 -28 -28 -28
-19 -19 -19 -19 -19 -20 -21 -21 -21 -21 -20 -21 -22 -22 -22 -22 -23 -23 -22 -23 -23 -23 -23 -23 -24 -23 -23 -23 -23 -23 -23 -23 -24 -24 -25 -25 -25 -26 -29 -30 -29 -29 -29
-20 -20 -19 -19 -20 -21 -21 -21 -21 -21 -21 -21 -22 -22 -22 -22 -23 -23 -23 -23 -24 -24 -23 -23 -23 -24 -24 -24 -24 -25 -24 -24 -24 -24 -25 -25 -25 -28 -29 -30 -30 -29 -30
-20 -20 -20 -21 -21 -21 -21 -21 -21 -22 -21 -22 -22 -23 -22 -23 -23 -24 -24 -23 -24 -25 -25 -24 -24 -24 -25 -26 -25 -25 -25 -25 -25 -25 -25 -26 -27 -30 -30 -30 -30 -29 -30
-21 -21 -21 -21 -22 -22 -21 -21 -21 -21 -21 -22 -22 -23 -23 -23 -24 -24 -24 -24 -25 -25 -25 -25 -25 -26 -26 -26 -26 -26 -25 -25 -25 -25 -26 -27 -29 -29 -30 -30 -30 -30 -29
-21 -22 -22 -22 -22 -22 -22 -22 -22 -22 -22 -22 -22 -23 -24 -24 -24 -24 -25 -25 -25 -26 -26 -26 -26 -27 -28 -27 -27 -27 -26 -27 -26 -26 -26 -29 -30 -29 -30 -30 -30 -30 -29
-22 -23 -22 -21 -22 -22 -22 -22 -22 -23 -22 -23 -23 -25 -25 -25 -25 -25 -26 -26 -26 -26 -27 -27 -28 -29 -29 -29 -28 -28 -28 -27 -26 -26 -29 -30 -30 -30 -30 -30 -30 -30 -30
-23 -23 -23 -22 -23 -23 -23 -23 -23 -23 -23 -23 -23 -26 -26 -26 -26 -25 -26 -26 -26 -27 -28 -29 -30 -30 -30 -29 -29 -28 -28 -26 -26 -28 -30 -30 -30 -30 -30 -30 -30 -30 -30
-22 -22 -23 -22 -22 -23 -23 -24 -24 -24 -23 -24 -25 -24 -27 -27 -26 -26 -26 -27 -27 -28 -30 -30 -31 -31 -30 -30 -29 -28 -27 -27 -28 -31 -31 -30 -30 -30 -29 -30 -31 -30 -31
-22 -22 -23 -23 -23 -24 -24 -24 -25 -25 -24 -24 -24 -25 -27 -27 -27 -27 -27 -28 -29 -30 -31 -32 -31 -31 -30 -30 -29 -28 -27 -28 -31 -32 -32 -31 -30 -30 -29 -30 -30 -30 -31
-23 -23 -23 -23 -24 -24 -24 -24 -24 -25 -25 -26 -25 -27 -28 -28 -28 -28 -29 -29 -30 -31 -32 -31 -31 -30 -30 -30 -29 -29 -29 -31 -32 -33 -32 -31 -31 -30 -30 -30 -30 -30 -30
-24 -24 -23 -23 -25 -25 -25 -25 -25 -27 -28 -29 -29 -29 -29 -29 -29 -29 -30 -31 -31 -32 -32 -31 -31 -30 -31 -31 -30 -30 -32 -33 -33 -33 -32 -32 -31 -30 -29 -29 -30 -30 -30
-25 -25 -25 -25 -26 -27 -27 -27 -28 -29 -29 -30 -30 -30 -29 -30 -30 -30 -31 -31 -32 -32 -32 -31 -31 -31 -31 -31 -31 -32 -34 -34 -34 -33 -33 -32 -31 -30 -30 -30 -30 -30 -30
-28 -28 -28 -28 -28 -28 -29 -29 -29 -30 -30 -29 -29 -30 -31 -31 -31 -31 -31 -32 -32 -32 -32 -32 -31 -31 -32 -32 -32 -34 -35 -35 -34 -33 -33 -32 -31 -30 -29 -29 -30 -29 -30
-29 -29 -29 -28 -28 -28 -29 -29 -28 -29 -30 -30 -31 -32 -31 -32 -32 -32 -33 -33 -32 -32 -32 -32 -32 -32 -32 -33 -33 -35 -35 -35 -35 -33 -33 -32 -31 -30 -29 -29 -29 -29 -29
-30 -29 -28 -28 -29 -29 -29 -29 -28 -30 -31 -32 -32 -32 -32 -32 -32 -33 -33 -33 -33 -32 -33 -33 -33 -32 -33 -33 -34 -35 -35 -35 -35 -34 -33 -32 -31 -30 -30 -29 -29 -28 -28
-29 -28 -28 -28 -28 -29 -28 -29 -31 -32 -32 -32 -33 -33 -32 -33 -33 -33 -33 -33 -33 -33 -33 -33 -33 -33 -33 -33 -34 -35 -35 -35 -35 -34 -34 -33 -32 -31 -30 -29 -29 -29 -28
-29 -28 -29 -29 -29 -29 -30 -32 -32 -33 -33 -33 -33 -33 -33 -33 -33 -33 -34 -34 -33 -33 -34 -34 -34 -33 -34 -34 -35 -35 -35 -36 -36 -35 -34 -33 -32 -31 -30 -29 -29 -29 -28

GFSGL_500_temp_006.txt.gz
Temp
-14 -14 -13 -13 -13 -13 -14 -14 -14 -14 -15 -14 -14 -14 -14 -14 -14 -14 -14 -14 -14 -14 -14 -14 -15 -15 -16 -17 -18 -18 -18 -19 -18 -18 -18 -18 -18 -18 -18 -18 -18 -18 -19
-15 -15 -15 -14 -14 -14 -14 -15 -15 -15 -15 -15 -15 -15 -15 -15 -15 -15 -15 -15 -15 -15 -15 -16 -16 -17 -18 -19 -19 -19 -19 -19 -19 -19 -19 -19 -19 -19 -19 -19 -19 -19 -19
-15 -15 -15 -15 -15 -15 -15 -15 -16 -16 -16 -16 -16 -15 -15 -16 -16 -16 -16 -16 -16 -17 -17 -18 -18 -18 -19 -19 -20 -20 -20 -20 -20 -20 -20 -20 -20 -20 -20 -20 -20 -20 -20
-15 -15 -15 -16 -17 -17 -16 -17 -17 -17 -16 -17 -16 -16 -16 -16 -17 -17 -18 -18 -18 -18 -19 -19 -19 -19 -19 -19 -20 -20 -20 -21 -21 -20 -21 -20 -20 -21 -21 -21 -21 -21 -21
-15 -15 -15 -17 -17 -17 -17 -17 -17 -17 -17 -17 -17 -17 -17 -18 -19 -19 -19 -19 -19 -19 -19 -20 -20 -20 -20 -20 -21 -20 -20 -20 -21 -21 -21 -21 -22 -21 -22 -21 -21 -21 -21
-14 -15 -16 -17 -17 -17 -17 -17 -18 -18 -18 -18 -19 -19 -19 -19 -19 -19 -20 -20 -20 -20 -21 -21 -21 -21 -21 -21 -21 -22 -21 -21 -21 -22 -22 -21 -22 -22 -22 -22 -22 -22 -21
-15 -16 -16 -17 -17 -17 -17 -17 -18 -18 -19 -19 -20 -20 -20 -20 -20 -20 -20 -21 -21 -21 -22 -22 -22 -23 -23 -22 -22 -22 -22 -22 -22 -22 -22 -22 -22 -23 -23 -22 -23 -23 -23
-15 -16 -17 -17 -18 -18 -18 -19 -19 -19 -19 -19 -21 -21 -21 -21 -21 -21 -22 -22 -22 -21 -22 -22 -22 -22 -23 -23 -23 -23 -23 -23 -23 -23 -23 -23 -23 -23 -24 -23 -23 -23 -23
-16 -16 -16 -17 -18 -19 -19 -20 -20 -20 -19 -19 -21 -21 -21 -21 -22 -21 -21 -22 -21 -22 -22 -22 -22 -23 -23 -23 -23 -23 -24 -24 -23 -23 -24 -24 -24 -24 -24 -24 -24 -24 -23
-19 -18 -19 -19 -19 -20 -20 -20 -20 -20 -20 -20 -20 -21 -21 -21 -22 -22 -22 -22 -21 -22 -22 -22 -22 -22 -23 -23 -23 -24 -24 -24 -24 -25 -24 -25 -25 -25 -25 -25 -25 -24 -24
-20 -20 -20 -20 -20 -20 -20 -20 -21 -21 -21 -21 -21 -21 -21 -21 -21 -22 -21 -21 -22 -22 -22 -23 -23 -23 -23 -23 -24 -25 -25 -24 -25 -25 -25 -25 -25 -25 -25 -25 -26 -25 -25
-21 -20 -20 -21 -21 -21 -21 -21 -21 -22 -22 -22 -22 -21 -22 -22 -22 -22 -21 -21 -22 -22 -23 -23 -23 -24 -24 -24 -24 -25 -25 -26 -26 -26 -26 -25 -25 -25 -25 -26 -26 -26 -27
-21 -21 -20 -21 -21 -22 -22 -22 -21 -22 -22 -22 -21 -22 -22 -22 -22 -22 -22 -22 -22 -22 -23 -24 -25 -25 -25 -25 -24 -26 -26 -26 -26 -26 -26 -26 -26 -25 -26 -26 -26 -28 -30
-22 -22 -22 -22 -22 -22 -22 -21 -22 -22 -22 -22 -23 -23 -22 -22 -22 -22 -23 -23 -23 -24 -24 -25 -25 -25 -26 -25 -26 -27 -27 -27 -27 -27 -27 -27 -27 -26 -26 -26 -27 -30 -30
-22 -22 -22 -22 -22 -23 -23 -23 -23 -22 -22 -22 -23 -23 -23 -22 -23 -24 -24 -24 -24 -25 -26 -26 -26 -27 -27 -27 -27 -28 -29 -29 -29 -28 -28 -28 -28 -27 -27 -28 -30 -31 -30
-22 -22 -22 -22 -23 -23 -23 -23 -22 -22 -23 -23 -23 -23 -24 -24 -23 -24 -25 -25 -26 -26 -27 -27 -27 -28 -28 -29 -29 -30 -31 -31 -30 -30 -29 -28 -27 -27 -28 -31 -31 -31 -29
-23 -23 -22 -22 -22 -23 -23 -23 -23 -23 -23 -23 -23 -23 -24 -25 -25 -25 -25 -26 -27 -27 -28 -28 -28 -29 -30 -30 -31 -31 -31 -31 -30 -30 -29 -28 -27 -29 -32 -32 -31 -30 -29
-23 -24 -24 -24 -24 -23 -23 -23 -22 -23 -24 -23 -23 -23 -24 -24 -25 -25 -27 -28 -28 -28 -29 -29 -29 -30 -31 -32 -32 -32 -31 -30 -30 -29 -28 -28 -29 -32 -33 -32 -31 -30 -30
-23 -23 -23 -23 -24 -24 -23 -22 -23 -23 -23 -23 -23 -23 -23 -24 -24 -26 -28 -28 -28 -28 -30 -30 -30 -31 -32 -32 -32 -31 -31 -30 -30 -29 -29 -30 -31 -33 -33 -32 -32 -31 -30
-25 -25 -24 -24 -24 -24 -25 -24 -24 -24 -24 -23 -25 -25 -25 -25 -27 -29 -28 -28 -28 -30 -30 -31 -32 -32 -33 -32 -32 -31 -31 -31 -30 -30 -31 -32 -33 -34 -33 -32 -32 -31 -30
-27 -27 -27 -27 -26 -26 -26 -26 -25 -25 -25 -25 -26 -26 -26 -26 -26 -28 -30 -30 -31 -31 -31 -32 -32 -32 -32 -32 -32 -32 -32 -31 -31 -31 -32 -32 -33 -34 -33 -32 -32 -31 -30
-31 -31 -31 -31 -30 -29 -29 -29 -29 -29 -29 -29 -29 -30 -30 -30 -30 -30 -30 -31 -31 -31 -32 -33 -32 -32 -33 -32 -32 -33 -32 -32 -32 -32 -32 -33 -34 -34 -33 -32 -31 -31 -30
-31 -31 -31 -31 -31 -31 -30 -30 -30 -29 -29 -29 -29 -30 -30 -30 -30 -30 -30 -31 -32 -33 -33 -33 -33 -33 -33 -33 -33 -33 -33 -32 -32 -33 -33 -33 -34 -34 -33 -32 -31 -30 -29
-31 -31 -31 -31 -31 -31 -30 -30 -29 -29 -29 -29 -30 -30 -30 -30 -31 -31 -32 -33 -33 -33 -33 -33 -33 -33 -33 -33 -33 -33 -33 -32 -33 -33 -33 -33 -34 -34 -33 -33 -31 -31 -30
-31 -31 -30 -30 -30 -30 -30 -29 -29 -29 -29 -29 -29 -30 -30 -32 -32 -33 -33 -34 -33 -33 -33 -33 -33 -34 -33 -33 -33 -33 -33 -33 -33 -34 -34 -34 -34 -34 -33 -33 -32 -31 -30
-30 -30 -30 -29 -29 -29 -29 -29 -29 -29 -30 -29 -31 -32 -33 -33 -34 -34 -34 -34 -33 -33 -33 -33 -34 -34 -34 -34 -34 -34 -34 -33 -34 -34 -35 -35 -35 -34 -34 -33 -32 -31 -30

GFSGL_500_temp_009.txt.gz
Temp
-14 -14 -13 -13 -13 -13 -14 -14 -14 -14 -14 -13 -13 -13 -14 -14 -14 -15 -15 -15 -14 -14 -14 -14 -14 -14 -15 -15 -15 -14 -14 -14 -14 -15 -16 -17 -18 -18 -18 -18 -18 -18 -19
-15 -14 -14 -15 -15 -15 -15 -15 -15 -15 -15 -15 -14 -14 -14 -15 -15 -15 -15 -15 -15 -15 -15 -16 -16 -15 -15 -14 -15 -15 -16 -16 -17 -18 -19 -19 -19 -19 -19 -19 -19 -19 -19
-15 -15 -15 -15 -15 -16 -15 -16 -16 -16 -16 -15 -15 -15 -15 -16 -16 -16 -16 -16 -16 -16 -16 -15 -15 -16 -16 -16 -18 -19 -18 -18 -19 -19 -19 -20 -20 -20 -20 -20 -20 -20 -20
-16 -15 -16 -16 -16 -17 -16 -16 -16 -16 -16 -16 -16 -16 -17 -17 -17 -17 -17 -16 -16 -16 -17 -17 -18 -18 -19 -19 -19 -19 -19 -20 -20 -20 -20 -20 -20 -20 -20 -20 -21 -20 -20
-16 -16 -15 -16 -16 -16 -16 -16 -16 -17 -18 -17 -17 -17 -17 -17 -17 -17 -18 -18 -18 -18 -18 -19 -19 -19 -20 -20 -19 -20 -20 -20 -20 -20 -20 -21 -21 -21 -22 -21 -21 -21 -21
-16 -17 -16 -16 -16 -16 -16 -16 -17 -18 -18 -18 -17 -18 -18 -18 -19 -19 -19 -19 -19 -19 -19 -20 -19 -20 -20 -21 -21 -21 -21 -21 -22 -22 -22 -22 -22 -22 -22 -22 -22 -22 -22
-17 -17 -17 -16 -16 -17 -16 -16 -17 -18 -18 -18 -18 -19 -19 -19 -19 -19 -19 -19 -20 -20 -20 -21 -21 -21 -21 -21 -21 -21 -22 -21 -22 -22 -22 -23 -23 -23 -22 -23 -23 -23 -23
-18 -18 -17 -17 -17 -17 -18 -18 -18 -18 -18 -18 -18 -19 -19 -19 -19 -19 -20 -20 -20 -21 -21 -22 -21 -21 -22 -22 -21 -22 -22 -22 -23 -23 -23 -23 -23 -23 -24 -23 -23 -24 -24
-19 -18 -18 -18 -18 -18 -18 -18 -18 -18 -18 -18 -19 -19 -20 -20 -19 -20 -20 -20 -21 -21 -21 -21 -22 -22 -22 -21 -22 -22 -22 -22 -22 -23 -23 -23 -23 -23 -23 -24 -24 -24 -24
-20 -20 -20 -20 -20 -20 -19 -20 -19 -19 -19 -20 -20 -20 -20 -20 -20 -20 -21 -21 -22 -22 -22 -22 -22 -23 -23 -22 -22 -23 -23 -23 -23 -23 -23 -23 -24 -24 -24 -25 -25 -25 -24
-22 -21 -22 -21 -21 -21 -20 -21 -21 -20 -20 -20 -20 -21 -21 -21 -21 -21 -21 -22 -22 -22 -22 -23 -22 -22 -23 -23 -23 -24 -23 -23 -24 -24 -24 -25 -25 -25 -25 -25 -26 -25 -25
-22 -22 -22 -22 -21 -21 -21 -21 -21 -21 -22 -21 -21 -21 -22 -22 -22 -22 -21 -22 -23 -23 -23 -23 -23 -23 -24 -24 -24 -24 -24 -23 -24 -25 -25 -26 -26 -26 -26 -26 -26 -26 -26
-22 -22 -22 -23 -22 -22 -21 -20 -22 -22 -22 -22 -22 -22 -22 -22 -22 -22 -22 -22 -22 -22 -22 -23 -23 -24 -25 -24 -24 -24 -24 -24 -25 -26 -26 -27 -27 -27 -27 -27 -27 -27 -27
-23 -22 -23 -23 -23 -23 -22 -22 -22 -22 -22 -22 -23 -22 -23 -23 -22 -21 -22 -22 -23 -23 -23 -23 -24 -24 -24 -24 -24 -24 -25 -25 -26 -27 -28 -29 -29 -29 -28 -28 -28 -28 -27
-23 -23 -23 -23 -24 -23 -22 -22 -22 -22 -23 -23 -23 -23 -23 -23 -23 -23 -22 -22 -23 -24 -23 -23 -24 -24 -24 -24 -25 -25 -26 -26 -28 -29 -29 -30 -30 -30 -30 -29 -29 -28 -28
-24 -24 -24 -25 -24 -23 -23 -22 -22 -22 -23 -23 -23 -23 -23 -23 -23 -23 -23 -23 -23 -24 -24 -25 -24 -25 -25 -25 -26 -27 -27 -27 -29 -29 -30 -30 -30 -30 -30 -30 -29 -29 -28
-24 -26 -25 -25 -25 -25 -23 -22 -22 -22 -23 -23 -23 -23 -23 -23 -23 -23 -23 -23 -23 -24 -25 -25 -25 -25 -25 -25 -27 -28 -28 -29 -29 -30 -31 -31 -31 -31 -30 -30 -29 -29 -28
-26 -25 -25 -25 -26 -25 -24 -23 -23 -23 -23 -23 -23 -23 -23 -24 -24 -24 -23 -24 -24 -24 -24 -24 -24 -25 -26 -27 -28 -28 -30 -30 -31 -32 -32 -32 -31 -31 -30 -30 -30 -29 -29
-27 -27 -26 -25 -25 -25 -25 -24 -24 -24 -24 -24 -24 -23 -24 -24 -24 -24 -24 -24 -24 -25 -25 -25 -26 -27 -27 -28 -29 -30 -31 -31 -32 -32 -32 -32 -31 -31 -30 -30 -30 -30 -30
-29 -28 -27 -26 -26 -26 -25 -24 -24 -24 -23 -23 -24 -24 -24 -23 -24 -24 -24 -25 -25 -27 -28 -28 -29 -28 -29 -29 -30 -31 -32 -32 -32 -32 -32 -32 -31 -31 -31 -31 -31 -31 -31
-32 -30 -30 -29 -28 -27 -27 -26 -26 -26 -25 -24 -24 -25 -25 -25 -25 -25 -27 -27 -27 -28 -29 -30 -30 -30 -31 -31 -31 -32 -33 -33 -32 -32 -32 -32 -32 -32 -32 -31 -31 -31 -32
-33 -32 -32 -32 -32 -31 -30 -30 -29 -28 -28 -28 -27 -28 -28 -27 -28 -29 -29 -30 -30 -30 -31 -30 -31 -31 -31 -32 -33 -33 -33 -33 -32 -32 -32 -32 -32 -32 -32 -32 -32 -32 -33
-32 -32 -32 -31 -31 -31 -31 -31 -31 -31 -30 -30 -30 -29 -29 -30 -31 -30 -30 -31 -31 -31 -31 -31 -31 -32 -33 -33 -33 -34 -33 -33 -33 -33 -33 -32 -33 -33 -32 -32 -32 -33 -33
-31 -31 -31 -31 -31 -31 -31 -31 -31 -31 -31 -31 -31 -31 -31 -30 -30 -31 -31 -31 -31 -31 -31 -31 -32 -33 -34 -34 -34 -34 -33 -33 -33 -33 -33 -33 -33 -33 -32 -32 -33 -33 -33
-31 -31 -31 -31 -31 -31 -31 -31 -31 -31 -31 -31 -31 -30 -30 -30 -31 -31 -31 -31 -31 -31 -32 -33 -34 -34 -34 -34 -34 -34 -34 -33 -33 -33 -33 -33 -33 -33 -33 -33 -33 -34 -34
-31 -31 -31 -31 -31 -31 -31 -31 -31 -31 -31 -31 -30 -30 -30 -30 -31 -31 -31 -32 -33 -34 -34 -35 -35 -35 -35 -34 -34 -34 -34 -34 -33 -33 -33 -34 -34 -34 -34 -33 -34 -34 -34

GFSGL_500_temp_012.txt.gz
Temp
-14 -14 -13 -12 -12 -13 -14 -15 -16 -16 -15 -15 -15 -14 -15 -15 -15 -15 -15 -14 -14 -14 -14 -15 -14 -14 -14 -14 -14 -14 -15 -15 -15 -15 -15 -16 -17 -17 -18 -18 -18 -18 -18
-15 -15 -15 -14 -13 -13 -13 -15 -16 -16 -16 -16 -15 -14 -15 -15 -15 -15 -15 -15 -15 -15 -15 -15 -15 -15 -15 -15 -15 -15 -15 -15 -15 -16 -16 -17 -17 -18 -18 -18 -19 -19 -19
-17 -16 -16 -15 -14 -15 -15 -16 -15 -15 -17 -17 -15 -15 -16 -16 -16 -16 -16 -16 -16 -16 -16 -16 -16 -16 -16 -16 -16 -16 -16 -16 -16 -17 -17 -18 -18 -18 -18 -18 -19 -19 -20
-17 -17 -17 -16 -16 -16 -16 -16 -16 -16 -15 -16 -16 -16 -17 -16 -16 -16 -16 -17 -17 -18 -17 -17 -17 -17 -17 -17 -17 -17 -17 -17 -17 -18 -18 -19 -19 -19 -19 -20 -20 -21 -21
-17 -16 -17 -17 -17 -17 -16 -17 -17 -17 -16 -16 -16 -17 -17 -17 -17 -17 -18 -17 -18 -18 -18 -18 -18 -18 -18 -18 -18 -18 -18 -18 -19 -19 -19 -20 -19 -20 -21 -21 -21 -21 -21
-19 -19 -18 -18 -17 -17 -17 -17 -16 -16 -16 -17 -17 -17 -17 -17 -17 -18 -18 -18 -18 -18 -18 -18 -18 -19 -19 -19 -19 -19 -20 -20 -20 -20 -20 -21 -21 -21 -20 -21 -21 -21 -21
-19 -19 -19 -19 -19 -18 -18 -18 -17 -17 -17 -17 -17 -17 -17 -17 -17 -18 -19 -18 -18 -18 -19 -19 -19 -19 -19 -19 -19 -20 -20 -20 -21 -21 -21 -21 -21 -21 -21 -21 -21 -22 -21
-19 -20 -19 -20 -19 -19 -18 -19 -18 -18 -18 -17 -18 -18 -18 -18 -18 -18 -18 -19 -19 -19 -19 -19 -19 -20 -20 -20 -20 -21 -21 -21 -22 -22 -22 -22 -21 -21 -22 -22 -22 -22 -22
-20 -20 -21 -21 -20 -20 -19 -19 -19 -18 -18 -18 -18 -19 -18 -18 -18 -18 -19 -19 -19 -19 -19 -19 -20 -19 -20 -20 -21 -21 -21 -22 -22 -22 -22 -22 -22 -22 -22 -22 -23 -22 -22
-21 -20 -20 -20 -19 -19 -20 -20 -20 -19 -19 -19 -19 -20 -19 -19 -19 -19 -19 -20 -20 -20 -20 -20 -20 -20 -20 -21 -22 -22 -22 -22 -22 -22 -23 -23 -23 -23 -23 -23 -22 -23 -23
-23 -21 -21 -22 -21 -21 -21 -21 -21 -21 -21 -21 -20 -20 -20 -20 -19 -20 -21 -20 -20 -20 -20 -21 -21 -21 -21 -22 -22 -22 -23 -22 -23 -23 -23 -23 -23 -23 -23 -23 -23 -23 -23
-24 -23 -22 -22 -23 -22 -22 -22 -22 -22 -23 -22 -21 -20 -21 -21 -22 -21 -21 -20 -21 -21 -21 -21 -21 -21 -21 -21 -22 -22 -22 -23 -23 -23 -23 -24 -23 -24 -24 -24 -24 -24 -24
-25 -24 -24 -23 -23 -23 -23 -23 -22 -22 -22 -22 -21 -20 -21 -22 -22 -22 -22 -21 -21 -21 -21 -21 -22 -22 -22 -22 -22 -22 -23 -24 -24 -24 -24 -25 -24 -25 -25 -25 -25 -25 -25
-25 -24 -25 -24 -24 -24 -25 -24 -24 -24 -22 -22 -22 -22 -22 -22 -22 -22 -22 -22 -22 -21 -22 -22 -22 -22 -22 -23 -23 -23 -24 -24 -24 -25 -25 -25 -25 -25 -25 -25 -26 -27 -27
-26 -25 -25 -25 -25 -25 -25 -25 -25 -24 -24 -23 -23 -23 -23 -22 -22 -22 -22 -21 -22 -22 -22 -22 -22 -22 -23 -23 -23 -24 -24 -26 -25 -26 -26 -25 -26 -26 -27 -27 -27 -28 -28
-27 -26 -26 -25 -25 -25 -25 -25 -25 -25 -24 -23 -24 -23 -23 -23 -22 -21 -22 -22 -22 -22 -23 -22 -22 -23 -23 -23 -23 -25 -25 -26 -26 -25 -25 -26 -27 -28 -28 -28 -29 -29 -30
-28 -27 -26 -26 -25 -25 -25 -25 -25 -25 -24 -23 -24 -24 -24 -23 -22 -22 -22 -21 -22 -22 -23 -23 -23 -23 -23 -23 -23 -25 -26 -26 -25 -25 -26 -27 -28 -29 -29 -30 -30 -31 -31
-30 -29 -29 -28 -27 -26 -26 -25 -25 -25 -25 -24 -25 -25 -24 -24 -23 -23 -23 -23 -22 -22 -23 -23 -23 -24 -25 -25 -25 -25 -25 -26 -27 -27 -27 -28 -30 -30 -30 -31 -31 -32 -32
-31 -31 -31 -30 -29 -28 -27 -27 -27 -26 -26 -25 -25 -25 -25 -24 -24 -25 -24 -24 -24 -23 -24 -25 -25 -25 -25 -25 -25 -25 -25 -26 -28 -28 -29 -30 -31 -31 -31 -32 -32 -32 -32
-32 -32 -32 -31 -31 -31 -30 -29 -29 -28 -27 -26 -26 -26 -26 -25 -25 -25 -25 -25 -25 -25 -25 -25 -26 -26 -26 -26 -26 -27 -28 -28 -29 -29 -30 -31 -32 -32 -32 -33 -33 -32 -32
-32 -32 -32 -32 -33 -32 -32 -31 -31 -30 -29 -28 -27 -26 -26 -26 -26 -26 -26 -25 -25 -24 -24 -25 -27 -27 -27 -28 -29 -29 -30 -30 -30 -31 -31 -32 -32 -33 -33 -33 -33 -32 -32
-33 -33 -34 -34 -34 -33 -32 -32 -31 -31 -31 -30 -29 -28 -28 -27 -26 -26 -26 -26 -26 -26 -26 -27 -28 -29 -29 -30 -30 -31 -31 -31 -31 -31 -32 -33 -33 -34 -34 -33 -33 -33 -33
-34 -34 -34 -33 -33 -33 -33 -32 -32 -32 -32 -32 -31 -31 -30 -30 -30 -30 -30 -30 -29 -30 -29 -30 -30 -30 -31 -31 -31 -31 -31 -32 -32 -32 -33 -34 -34 -34 -34 -34 -33 -33 -33
-34 -33 -33 -33 -32 -32 -32 -32 -32 -32 -32 -32 -32 -32 -32 -32 -32 -32 -32 -32 -31 -31 -31 -31 -31 -31 -31 -32 -32 -32 -32 -33 -33 -34 -34 -34 -34 -34 -34 -34 -34 -33 -33
-32 -32 -32 -32 -32 -31 -31 -31 -32 -32 -32 -32 -32 -32 -32 -32 -33 -32 -32 -32 -31 -31 -31 -31 -32 -32 -32 -32 -33 -33 -34 -34 -35 -35 -34 -34 -34 -34 -34 -34 -34 -34 -33
-31 -31 -31 -31 -31 -31 -31 -31 -32 -32 -32 -32 -32 -32 -32 -32 -32 -32 -31 -31 -31 -31 -31 -31 -32 -32 -33 -33 -34 -35 -35 -35 -35 -35 -35 -35 -34 -34 -34 -34 -34 -34 -34

GFSGL_500_temp_015.txt.gz
Temp
-17 -16 -15 -15 -15 -14 -14 -14 -13 -13 -13 -13 -15 -15 -15 -14 -15 -15 -15 -16 -15 -15 -16 -16 -15 -15 -15 -15 -15 -15 -15 -15 -15 -15 -15 -15 -16 -16 -16 -16 -16 -17 -17
-17 -17 -17 -17 -16 -16 -15 -15 -16 -15 -16 -16 -16 -15 -15 -15 -15 -15 -16 -16 -16 -15 -16 -16 -16 -16 -16 -15 -16 -15 -16 -16 -16 -16 -16 -16 -16 -17 -17 -17 -17 -17 -18
-18 -18 -17 -17 -17 -17 -17 -17 -17 -17 -17 -17 -17 -17 -17 -17 -17 -17 -17 -17 -17 -16 -16 -16 -16 -16 -17 -16 -16 -17 -17 -17 -17 -17 -17 -17 -17 -17 -17 -18 -18 -18 -19
-18 -18 -18 -18 -18 -18 -18 -17 -17 -17 -18 -18 -18 -18 -18 -17 -18 -17 -17 -17 -18 -17 -16 -17 -17 -16 -17 -17 -17 -17 -17 -17 -18 -17 -18 -18 -18 -18 -18 -19 -19 -19 -20
-19 -19 -19 -19 -19 -19 -19 -18 -18 -18 -18 -17 -17 -18 -18 -17 -17 -17 -18 -17 -18 -18 -18 -17 -18 -18 -17 -17 -17 -18 -18 -18 -18 -18 -18 -19 -19 -19 -18 -19 -19 -20 -20
-20 -19 -19 -19 -19 -19 -19 -19 -19 -19 -19 -18 -18 -18 -18 -18 -18 -18 -18 -18 -18 -18 -18 -18 -18 -18 -18 -18 -18 -18 -18 -18 -19 -19 -19 -19 -19 -19 -20 -20 -20 -20 -20
-21 -21 -20 -19 -19 -19 -20 -19 -19 -19 -20 -19 -19 -18 -18 -18 -18 -18 -18 -18 -18 -18 -18 -18 -18 -18 -18 -18 -18 -18 -18 -19 -19 -19 -19 -19 -19 -20 -20 -20 -20 -21 -21
-21 -22 -22 -22 -21 -21 -20 -20 -21 -20 -20 -20 -20 -19 -19 -18 -18 -18 -18 -19 -18 -19 -18 -18 -18 -18 -18 -18 -18 -19 -19 -19 -19 -19 -20 -20 -20 -20 -21 -21 -21 -22 -22
-22 -22 -22 -22 -22 -22 -21 -21 -21 -21 -21 -21 -21 -20 -20 -19 -19 -19 -19 -19 -19 -19 -19 -19 -19 -18 -18 -19 -19 -19 -19 -19 -19 -20 -20 -19 -21 -21 -21 -21 -21 -22 -22
-24 -23 -23 -22 -22 -22 -22 -22 -21 -20 -20 -21 -21 -21 -20 -22 -22 -21 -20 -20 -20 -19 -19 -19 -19 -19 -19 -19 -19 -20 -20 -20 -20 -21 -21 -21 -21 -21 -21 -21 -21 -22 -22
-26 -25 -24 -23 -23 -23 -23 -23 -22 -22 -21 -21 -20 -21 -21 -21 -21 -21 -21 -20 -19 -19 -20 -20 -19 -19 -20 -20 -20 -20 -20 -20 -20 -21 -21 -21 -22 -22 -22 -22 -22 -22 -22
-27 -27 -26 -25 -24 -24 -24 -23 -24 -22 -22 -22 -21 -21 -22 -22 -22 -21 -21 -21 -21 -21 -21 -20 -20 -21 -21 -21 -20 -20 -21 -21 -21 -21 -21 -22 -22 -22 -22 -22 -22 -22 -22
-28 -28 -27 -27 -26 -26 -24 -24 -25 -25 -23 -22 -22 -21 -22 -22 -22 -22 -22 -21 -21 -21 -21 -21 -22 -22 -22 -21 -21 -21 -21 -21 -21 -22 -22 -22 -23 -23 -23 -23 -23 -23 -24
-29 -28 -28 -27 -27 -27 -27 -26 -26 -26 -26 -25 -24 -23 -23 -23 -23 -22 -22 -21 -22 -21 -22 -22 -22 -22 -22 -21 -21 -21 -21 -21 -22 -22 -22 -22 -23 -23 -23 -24 -24 -24 -25
-31 -30 -29 -29 -28 -27 -27 -27 -27 -27 -26 -26 -26 -25 -24 -24 -25 -24 -22 -22 -22 -22 -23 -23 -22 -22 -22 -22 -22 -21 -22 -22 -22 -22 -22 -23 -23 -23 -23 -24 -24 -25 -25
-31 -31 -31 -30 -30 -29 -28 -28 -27 -27 -27 -26 -26 -25 -25 -26 -26 -26 -25 -23 -23 -22 -22 -23 -23 -23 -22 -22 -22 -22 -22 -23 -22 -22 -23 -23 -23 -24 -24 -25 -25 -25 -26
-32 -32 -31 -31 -31 -30 -30 -29 -28 -29 -28 -27 -27 -25 -25 -26 -26 -26 -26 -25 -24 -23 -22 -22 -22 -22 -22 -22 -22 -22 -23 -23 -23 -23 -23 -24 -24 -24 -25 -25 -26 -26 -27
-31 -31 -31 -31 -31 -31 -30 -30 -30 -30 -30 -28 -28 -26 -25 -26 -26 -26 -25 -26 -24 -24 -23 -23 -23 -23 -23 -23 -23 -24 -23 -23 -23 -23 -23 -23 -24 -25 -26 -26 -26 -27 -27
-31 -31 -31 -31 -31 -31 -31 -31 -31 -31 -30 -30 -29 -28 -27 -26 -27 -26 -25 -26 -25 -25 -24 -24 -25 -25 -25 -25 -25 -25 -25 -25 -25 -24 -24 -24 -26 -26 -26 -27 -28 -28 -28
-31 -31 -31 -32 -32 -32 -32 -32 -32 -32 -31 -31 -31 -30 -29 -27 -26 -26 -26 -26 -25 -25 -24 -25 -25 -26 -25 -25 -25 -25 -25 -25 -26 -26 -26 -26 -26 -27 -27 -28 -29 -29 -30
-32 -32 -32 -32 -32 -32 -32 -33 -33 -32 -32 -32 -31 -31 -31 -30 -28 -27 -27 -27 -26 -26 -26 -26 -26 -25 -25 -25 -25 -26 -25 -25 -25 -26 -27 -28 -28 -28 -29 -30 -30 -30 -31
-33 -33 -33 -33 -33 -34 -34 -34 -34 -34 -34 -33 -33 -32 -32 -31 -31 -30 -29 -29 -28 -28 -28 -27 -27 -27 -26 -26 -27 -26 -27 -27 -28 -29 -29 -30 -30 -30 -31 -31 -31 -31 -31
-32 -33 -34 -34 -34 -34 -33 -33 -33 -33 -33 -33 -33 -33 -33 -33 -32 -32 -31 -31 -30 -30 -29 -29 -28 -28 -28 -28 -28 -29 -29 -30 -30 -30 -30 -31 -31 -31 -32 -32 -32 -32 -32
-32 -32 -32 -33 -33 -33 -33 -33 -32 -32 -33 -33 -33 -33 -33 -33 -33 -33 -32 -32 -31 -31 -32 -32 -31 -30 -30 -30 -30 -30 -31 -31 -31 -31 -31 -32 -32 -32 -33 -33 -33 -33 -34
-32 -32 -32 -32 -32 -32 -32 -32 -32 -32 -32 -32 -32 -32 -33 -33 -33 -33 -33 -33 -33 -33 -33 -33 -32 -32 -32 -32 -31 -31 -31 -31 -32 -32 -33 -33 -33 -33 -33 -34 -34 -35 -35
-32 -32 -32 -32 -31 -32 -32 -32 -32 -32 -32 -32 -32 -32 -32 -33 -33 -33 -33 -33 -33 -33 -33 -33 -32 -32 -32 -32 -32 -32 -32 -32 -33 -33 -34 -34 -34 -35 -35 -35 -35 -35 -35

GFSGL_500_temp_021.txt.gz
Temp
-18 -18 -18 -18 -18 -18 -17 -17 -16 -16 -16 -16 -16 -16 -16 -15 -14 -14 -14 -14 -15 -15 -15 -15 -15 -15 -15 -15 -15 -15 -15 -15 -15 -15 -15 -15 -14 -14 -14 -14 -14 -14 -15
-19 -19 -19 -19 -19 -19 -18 -18 -19 -18 -17 -17 -16 -16 -16 -16 -16 -16 -16 -15 -15 -15 -15 -15 -15 -16 -16 -16 -16 -16 -17 -16 -16 -16 -16 -16 -16 -15 -15 -15 -15 -15 -15
-20 -20 -20 -20 -20 -20 -19 -20 -20 -20 -19 -18 -18 -18 -17 -17 -17 -17 -17 -17 -17 -16 -16 -16 -16 -16 -16 -17 -17 -17 -17 -17 -17 -16 -16 -16 -16 -16 -15 -15 -15 -15 -16
-21 -21 -21 -21 -21 -21 -20 -20 -19 -19 -20 -20 -20 -19 -19 -18 -18 -18 -17 -17 -17 -17 -17 -17 -17 -17 -17 -18 -17 -17 -17 -17 -18 -17 -17 -17 -17 -17 -17 -17 -17 -17 -17
-22 -21 -21 -21 -21 -22 -22 -21 -21 -21 -20 -21 -21 -20 -20 -19 -19 -19 -19 -18 -17 -17 -17 -18 -18 -18 -18 -18 -18 -18 -18 -18 -18 -17 -17 -17 -17 -18 -18 -18 -18 -17 -18
-23 -23 -23 -22 -22 -22 -22 -23 -23 -23 -22 -22 -21 -21 -21 -20 -20 -20 -20 -19 -19 -18 -18 -18 -19 -18 -19 -18 -18 -18 -18 -18 -18 -18 -18 -17 -17 -18 -18 -18 -18 -18 -18
-24 -24 -24 -24 -23 -23 -23 -23 -23 -23 -23 -23 -22 -22 -21 -21 -21 -20 -20 -20 -20 -20 -19 -19 -19 -19 -19 -19 -18 -19 -19 -19 -18 -19 -18 -17 -18 -18 -19 -19 -19 -19 -19
-25 -25 -25 -24 -24 -24 -24 -24 -23 -23 -23 -24 -24 -23 -23 -22 -21 -21 -21 -20 -20 -20 -20 -20 -19 -19 -19 -19 -19 -19 -19 -19 -19 -19 -19 -19 -18 -19 -19 -19 -19 -19 -19
-27 -26 -26 -26 -26 -26 -26 -26 -25 -25 -24 -24 -23 -24 -24 -23 -23 -22 -22 -21 -21 -20 -20 -20 -20 -20 -19 -19 -19 -19 -19 -19 -19 -19 -19 -19 -18 -19 -19 -19 -19 -19 -20
-29 -29 -29 -29 -28 -28 -28 -28 -28 -28 -27 -26 -25 -24 -24 -24 -24 -24 -23 -22 -21 -22 -22 -22 -21 -20 -20 -20 -19 -19 -19 -19 -19 -20 -19 -19 -19 -20 -20 -20 -20 -20 -20
-30 -29 -29 -29 -29 -29 -29 -29 -29 -28 -28 -28 -27 -26 -26 -26 -25 -26 -26 -24 -22 -22 -22 -22 -23 -22 -21 -20 -21 -21 -20 -20 -20 -20 -20 -20 -20 -20 -21 -21 -21 -20 -20
-29 -29 -28 -28 -28 -28 -28 -28 -28 -28 -28 -28 -27 -27 -27 -27 -27 -26 -27 -27 -26 -24 -22 -23 -23 -22 -22 -22 -22 -21 -21 -20 -21 -21 -20 -20 -20 -21 -21 -21 -21 -21 -21
-30 -30 -29 -29 -29 -29 -29 -29 -28 -28 -28 -28 -28 -27 -27 -27 -27 -27 -27 -28 -28 -27 -25 -24 -24 -23 -22 -22 -22 -21 -21 -21 -21 -21 -21 -21 -21 -21 -21 -21 -21 -21 -21
-30 -30 -31 -30 -30 -30 -30 -30 -30 -30 -29 -29 -29 -28 -28 -27 -27 -27 -27 -27 -27 -28 -27 -27 -25 -24 -23 -23 -23 -22 -22 -22 -22 -22 -22 -22 -21 -21 -22 -21 -21 -21 -21
-32 -31 -31 -30 -30 -30 -30 -29 -30 -30 -30 -30 -30 -30 -29 -29 -29 -29 -28 -27 -27 -28 -27 -27 -27 -26 -24 -23 -23 -23 -23 -23 -23 -23 -23 -22 -22 -22 -22 -22 -22 -22 -21
-31 -30 -30 -29 -29 -29 -29 -30 -30 -30 -30 -30 -30 -30 -30 -30 -30 -30 -30 -29 -28 -28 -28 -27 -27 -27 -26 -24 -23 -23 -23 -23 -23 -23 -23 -23 -23 -22 -22 -21 -22 -21 -21
-31 -31 -30 -30 -30 -30 -30 -30 -30 -30 -30 -30 -30 -30 -30 -31 -31 -31 -30 -30 -30 -30 -29 -28 -27 -27 -27 -26 -25 -25 -24 -23 -24 -23 -23 -23 -23 -23 -22 -22 -22 -22 -22
-31 -31 -31 -32 -31 -31 -31 -31 -31 -31 -31 -32 -31 -30 -31 -31 -31 -31 -32 -31 -31 -30 -29 -29 -28 -27 -27 -27 -28 -27 -26 -25 -25 -24 -24 -24 -24 -23 -23 -23 -22 -22 -22
-31 -31 -31 -32 -32 -33 -34 -34 -34 -33 -33 -32 -32 -32 -32 -32 -32 -32 -32 -32 -31 -31 -31 -30 -29 -28 -28 -28 -28 -28 -27 -25 -25 -24 -24 -24 -24 -23 -23 -23 -23 -23 -23
-31 -31 -31 -32 -32 -33 -34 -34 -34 -34 -34 -34 -34 -33 -33 -33 -33 -33 -32 -32 -32 -32 -32 -31 -30 -29 -29 -29 -29 -29 -28 -27 -27 -26 -25 -24 -24 -24 -23 -23 -23 -23 -23
-33 -32 -31 -31 -32 -32 -33 -33 -33 -33 -33 -34 -34 -34 -34 -34 -34 -34 -34 -34 -33 -33 -33 -32 -31 -31 -30 -30 -30 -29 -28 -28 -27 -27 -26 -26 -25 -24 -24 -24 -24 -23 -24
-33 -33 -32 -32 -32 -32 -32 -32 -33 -33 -33 -33 -34 -34 -35 -35 -35 -34 -34 -34 -34 -34 -33 -33 -32 -32 -31 -31 -30 -29 -28 -28 -27 -27 -27 -26 -26 -26 -26 -26 -26 -26 -26
-33 -33 -32 -32 -32 -32 -32 -32 -32 -32 -33 -33 -33 -34 -34 -35 -35 -35 -35 -34 -34 -34 -34 -34 -33 -33 -32 -31 -30 -29 -29 -28 -28 -28 -27 -27 -27 -27 -27 -27 -27 -27 -27
-33 -33 -33 -32 -32 -32 -32 -32 -32 -32 -32 -33 -33 -33 -34 -34 -34 -35 -35 -35 -35 -35 -34 -34 -34 -33 -33 -32 -31 -31 -30 -30 -29 -29 -28 -28 -28 -28 -29 -29 -29 -29 -29
-33 -33 -33 -33 -33 -33 -32 -32 -32 -32 -32 -32 -33 -33 -33 -34 -34 -34 -34 -34 -34 -35 -35 -35 -35 -34 -34 -33 -32 -32 -31 -31 -31 -31 -30 -30 -30 -30 -30 -31 -31 -31 -31
-34 -34 -33 -33 -33 -33 -33 -33 -33 -32 -33 -32 -33 -33 -33 -33 -34 -34 -34 -34 -34 -34 -34 -34 -34 -34 -34 -33 -33 -33 -32 -32 -32 -32 -32 -32 -32 -32 -32 -32 -32 -32 -32

GFSGL_500_temp_027.txt.gz
Temp
-20 -20 -20 -21 -21 -20 -20 -19 -19 -19 -19 -18 -19 -18 -18 -18 -18 -18 -17 -17 -16 -16 -15 -15 -15 -15 -15 -15 -15 -14 -14 -14 -13 -13 -14 -15 -15 -14 -15 -15 -15 -14 -15
-21 -21 -21 -21 -21 -21 -21 -21 -21 -20 -20 -19 -19 -19 -19 -19 -19 -19 -19 -19 -18 -18 -18 -17 -16 -16 -16 -16 -16 -16 -15 -16 -15 -14 -15 -15 -15 -15 -15 -15 -15 -15 -15
-22 -22 -22 -21 -21 -22 -21 -21 -21 -20 -21 -21 -21 -20 -20 -20 -20 -20 -20 -20 -19 -19 -19 -19 -19 -18 -18 -17 -17 -17 -17 -17 -17 -16 -15 -16 -16 -16 -16 -16 -16 -15 -15
-22 -22 -22 -22 -22 -21 -22 -21 -21 -21 -22 -22 -22 -22 -21 -21 -21 -21 -21 -21 -21 -20 -20 -20 -20 -20 -20 -19 -18 -18 -18 -17 -18 -17 -16 -16 -16 -16 -17 -16 -16 -16 -16
-24 -24 -23 -23 -24 -24 -24 -24 -23 -23 -23 -23 -23 -23 -22 -22 -21 -21 -22 -22 -21 -21 -21 -20 -21 -21 -20 -20 -21 -21 -20 -19 -19 -18 -18 -18 -16 -16 -17 -17 -17 -18 -18
-27 -27 -27 -27 -27 -27 -27 -26 -26 -26 -26 -26 -25 -24 -23 -24 -23 -23 -23 -23 -23 -22 -21 -21 -21 -21 -21 -21 -21 -21 -21 -21 -21 -20 -20 -18 -18 -17 -17 -18 -18 -18 -18
-28 -28 -29 -29 -29 -29 -29 -28 -28 -27 -26 -26 -26 -26 -26 -25 -25 -24 -24 -24 -24 -23 -23 -22 -22 -22 -22 -22 -21 -21 -22 -21 -22 -22 -21 -20 -20 -19 -18 -18 -18 -18 -18
-30 -30 -30 -30 -30 -30 -30 -30 -29 -29 -28 -28 -28 -27 -27 -26 -26 -26 -26 -25 -25 -24 -24 -23 -23 -23 -23 -23 -22 -22 -22 -22 -22 -22 -22 -21 -21 -20 -20 -19 -19 -19 -19
-31 -31 -31 -31 -31 -30 -30 -30 -30 -30 -30 -29 -29 -29 -29 -28 -28 -28 -27 -27 -26 -25 -25 -24 -24 -23 -23 -24 -23 -23 -22 -22 -22 -22 -22 -22 -21 -20 -21 -20 -20 -19 -19
-31 -31 -31 -31 -31 -30 -30 -30 -30 -29 -29 -29 -29 -29 -29 -28 -28 -29 -29 -28 -27 -27 -26 -26 -25 -25 -24 -24 -24 -24 -23 -23 -23 -23 -22 -22 -22 -21 -21 -21 -20 -20 -20
-32 -31 -31 -31 -31 -30 -30 -30 -29 -29 -29 -29 -28 -29 -29 -28 -28 -28 -28 -28 -28 -27 -27 -27 -27 -27 -27 -26 -26 -25 -24 -23 -23 -23 -23 -23 -22 -22 -21 -21 -20 -20 -20
-32 -32 -32 -31 -31 -31 -31 -30 -30 -30 -30 -30 -30 -30 -30 -30 -29 -29 -29 -29 -28 -28 -27 -27 -27 -27 -27 -28 -28 -27 -27 -26 -25 -24 -23 -23 -23 -23 -22 -22 -21 -21 -20
-33 -34 -33 -32 -32 -32 -32 -32 -31 -31 -30 -31 -30 -30 -31 -31 -30 -30 -30 -29 -29 -30 -29 -29 -28 -27 -27 -27 -27 -28 -28 -28 -27 -26 -25 -24 -23 -23 -23 -23 -22 -22 -21
-35 -34 -33 -34 -34 -34 -33 -32 -31 -31 -31 -31 -31 -32 -31 -32 -33 -32 -31 -31 -30 -29 -29 -29 -29 -29 -29 -28 -28 -27 -28 -28 -28 -28 -27 -26 -26 -24 -24 -23 -23 -23 -22
-35 -35 -35 -35 -34 -34 -33 -31 -31 -30 -31 -31 -31 -32 -32 -33 -33 -33 -33 -32 -31 -31 -30 -30 -30 -29 -29 -29 -29 -28 -28 -28 -28 -28 -28 -28 -28 -27 -26 -25 -24 -24 -23
-36 -35 -35 -35 -34 -34 -33 -31 -31 -30 -30 -31 -32 -32 -33 -33 -33 -33 -33 -33 -33 -32 -31 -30 -31 -30 -30 -30 -30 -30 -30 -29 -29 -29 -28 -28 -29 -28 -28 -27 -27 -25 -25
-36 -35 -35 -35 -34 -33 -33 -32 -31 -32 -31 -31 -32 -32 -33 -33 -33 -33 -34 -34 -34 -33 -32 -32 -31 -31 -30 -30 -30 -31 -31 -31 -31 -30 -29 -29 -29 -29 -29 -28 -28 -27 -26
-36 -35 -35 -35 -34 -34 -33 -33 -32 -32 -31 -32 -32 -32 -32 -33 -33 -34 -34 -34 -35 -34 -33 -33 -32 -32 -31 -31 -31 -32 -33 -33 -32 -32 -31 -30 -30 -29 -29 -29 -29 -28 -28
-36 -35 -35 -35 -34 -34 -33 -33 -33 -32 -32 -32 -32 -32 -32 -33 -33 -33 -34 -34 -35 -35 -34 -34 -33 -33 -32 -32 -32 -33 -33 -34 -33 -33 -33 -32 -31 -30 -29 -29 -29 -29 -28
-36 -36 -35 -35 -34 -34 -34 -33 -33 -33 -32 -32 -32 -32 -33 -33 -33 -34 -34 -34 -35 -35 -35 -35 -34 -34 -33 -33 -33 -34 -34 -34 -34 -34 -33 -33 -32 -31 -30 -29 -29 -29 -29
-36 -36 -35 -35 -34 -34 -34 -33 -33 -33 -33 -33 -32 -32 -32 -33 -33 -33 -34 -34 -35 -36 -36 -36 -35 -35 -35 -35 -35 -35 -35 -35 -34 -34 -34 -33 -33 -32 -31 -30 -30 -30 -29
-36 -36 -35 -35 -35 -34 -34 -34 -33 -33 -33 -33 -33 -33 -33 -33 -33 -33 -34 -34 -34 -35 -36 -36 -36 -36 -36 -35 -35 -35 -35 -35 -35 -35 -34 -34 -33 -33 -32 -31 -31 -30 -30
-36 -36 -35 -35 -35 -34 -34 -34 -33 -33 -33 -33 -33 -33 -33 -33 -33 -33 -34 -34 -34 -35 -35 -36 -36 -36 -36 -36 -36 -36 -36 -35 -35 -35 -34 -34 -33 -33 -32 -32 -31 -31 -31
-36 -36 -35 -35 -35 -35 -34 -34 -34 -34 -33 -33 -33 -33 -33 -33 -33 -34 -34 -34 -34 -34 -35 -35 -36 -36 -37 -37 -37 -36 -36 -36 -36 -36 -36 -35 -34 -34 -33 -33 -32 -32 -31
-36 -36 -36 -35 -35 -35 -34 -34 -34 -34 -34 -34 -34 -34 -35 -35 -35 -35 -35 -34 -34 -34 -34 -34 -35 -35 -36 -36 -36 -36 -36 -36 -36 -35 -35 -35 -34 -33 -33 -32 -32 -31 -31
-36 -36 -36 -35 -35 -35 -34 -34 -34 -34 -34 -35 -35 -36 -36 -37 -37 -37 -36 -35 -35 -35 -34 -34 -35 -35 -35 -36 -35 -35 -35 -35 -35 -35 -35 -34 -33 -33 -32 -32 -31 -31 -31